Location: Boston
(42.3580°N, 71.0600°W)
Time: 00:24:00
(UTC-05:00)

Vanguard 1 Rocket - Visible Passes

Search period start: 24 January 2018 00:00
Search period end: 03 February 2018 00:00
Orbit: 656 x 4221 km, 34.3° (Epoch: 22 January)

Date Brightness Start Highest point End Pass type
(mag) Time Alt. Az. Time Alt. Az. Time Alt. Az.
24 Jan 11.5 01:37:15 10° SSE 01:43:27 12° SE 01:48:52 10° SE visible
24 Jan 10.5 03:56:04 10° SSW 04:11:58 32° SSE 04:21:35 10° E visible
24 Jan 9.5 06:25:17 10° WSW 06:39:11 48° S 06:46:31 10° E visible
25 Jan 10.9 02:46:45 14° S 02:59:17 25° SSE 03:09:43 10° ESE visible
25 Jan 9.9 05:11:02 10° SW 05:27:20 45° SSE 05:36:07 10° E visible
26 Jan 11.3 01:41:28 16° SSE 01:46:20 18° SE 01:56:09 10° ESE visible
26 Jan 10.3 03:58:55 13° SW 04:14:58 39° SSE 04:25:18 10° E visible
26 Jan 9.4 06:27:37 10° WSW 06:42:19 53° S 06:49:54 10° ESE visible
27 Jan 11.6 00:35:41 10° SE 00:35:41 10° SE 00:36:18 10° SE visible
27 Jan 10.7 02:53:05 23° S 03:02:12 32° SSE 03:13:49 10° E visible
27 Jan 9.8 05:12:57 10° WSW 05:30:23 51° S 05:39:33 10° E visible
28 Jan 11.1 01:46:56 24° SSE 01:49:06 24° SE 02:01:12 10° E visible
28 Jan 10.2 04:04:19 20° SW 04:17:57 46° SSE 04:28:50 10° E visible
28 Jan 9.4 06:30:04 10° WSW 06:45:24 56° S 06:53:14 10° ESE visible
29 Jan 11.4 00:40:33 15° SE 00:40:33 15° SE 00:46:10 10° ESE visible
29 Jan 10.5 02:57:53 31° S 03:05:02 39° SSE 03:17:35 10° E visible
29 Jan 9.7 05:15:15 10° WSW 05:33:26 56° S 05:42:55 10° E visible
30 Jan 10.9 01:51:17 31° SSE 01:51:47 31° SSE 02:05:26 10° E visible
30 Jan 10.0 04:08:37 26° SW 04:20:53 52° SSE 04:32:15 10° E visible
31 Jan 11.3 00:44:32 20° ESE 00:44:32 20° ESE 00:51:45 10° E visible
31 Jan 10.4 03:01:51 39° S 03:07:49 45° SSE 03:21:06 10° E visible
31 Jan 9.7 05:19:10 13° WSW 05:36:26 60° S 05:46:13 10° E visible
01 Feb 10.7 01:54:57 37° SSE 01:54:57 37° SSE 02:09:14 10° E visible
01 Feb 10.0 04:12:16 30° SW 04:23:47 57° S 04:35:35 10° E visible
02 Feb 11.2 00:47:57 24° ESE 00:47:57 24° ESE 00:56:13 10° E visible
02 Feb 10.3 03:05:14 45° SSW 03:10:34 52° SSE 03:24:29 10° E visible
02 Feb 9.7 05:22:33 15° WSW 05:39:24 62° S 05:49:30 10° ESE visible
02 Feb 11.6 23:40:51 10° E 23:40:51 10° E 23:40:58 10° E visible
